#timestamp,LO_Frequency,Hit,StdDev 
1557968415.6,286046999.8,N
1557968435.4,286047000.5,N
1557968455.3,286047001.2,N
1557968475.1,286047000.1,N
1557968476.0,286047000.1,N
1557968495.8,286047000.4,N
1557968515.7,286046999.8,N
1557968535.5,286047000.1,N
1557968555.3,286047000.2,N
1557968575.2,286047002.2,N
1557968595.0,286047001.9,N
1557968595.9,286047001.9,N
1557968615.8,286047003.8,N
1557968635.6,286047001.5,N
1557968655.4,286047001.5,N
1557968675.3,286047005.6,Y
1557968695.1,286047003.0,P
1557968715.9,286047005.8,P
1557968735.7,286047004.0,N
1557968755.5,286047003.8,N
1557968775.4,286047003.8,N
1557968795.2,286047001.7,N
1557968815.0,286047003.6,N
1557968815.9,286047003.6,N
1557968835.8,286047004.4,N
1557968855.6,286047001.9,N
1557968875.5,286047002.1,N
1557968895.3,286047002.1,N
1557968915.1,286047002.5,N
1557968935.9,286046998.1,N
1557968955.7,286047001.2,N
1557968975.5,286046998.2,N
1557968995.4,286046998.1,N
1557969015.2,286046998.2,N
1557969035.1,286047001.1,N
1557969036.0,286047001.1,N
1557969055.8,286047001.2,N
1557969075.6,286047002.4,N
1557969095.5,286047001.8,N
1557969115.3,286047002.8,N
1557969135.1,286047001.5,N
1557969155.9,286047001.5,N
1557969175.7,286047004.0,N
1557969195.6,286047001.4,N
1557969215.4,286047002.6,N
1557969235.2,286047000.0,N
1557969255.1,286047001.3,N
1557969256.0,286047001.3,N
1557969275.8,286047002.5,N
1557969295.7,286047001.4,N
1557969315.5,286047003.9,N
1557969335.3,286047001.7,N
1557969355.2,286047004.0,N
1557969375.0,286047004.3,N
1557969375.9,286047004.3,N
1557969395.7,286047002.2,N
1557969415.6,286047000.2,N
1557969435.4,286047000.4,N
1557969455.3,286047002.8,N
1557969475.1,286047002.2,N
1557969476.0,286047002.2,N
1557969495.8,286047004.3,N
1557969515.7,286047001.8,N
1557969535.5,286047004.1,N
1557969555.4,286047003.7,N
1557969575.2,286047003.6,N
1557969595.0,286047003.9,Y
1557969595.9,286047003.9,P
1557969615.8,286047000.1,N
1557969635.6,286047002.3,N
1557969655.4,286047001.5,N
1557969675.3,286046999.9,N
1557969695.1,286046999.8,N
1557969715.9,286046999.7,N
1557969735.7,286047000.0,N
1557969755.5,286047002.4,N
1557969775.4,286047000.6,N
1557969795.2,286047000.2,N
1557969815.0,286047002.6,N
1557969815.9,286047002.6,N
1557969835.8,286047002.8,N
1557969855.6,286047000.6,N
1557969875.5,286047001.2,N
1557969895.3,286046998.6,N
1557969915.1,286047001.0,N
1557969935.9,286047000.7,N
1557969955.7,286047000.8,N
1557969975.6,286047000.3,N
1557969995.4,286047001.0,N
1557970015.2,286047000.1,N
1557970035.1,286047000.4,N
1557970036.0,286047000.4,N
1557970055.8,286047000.8,N
1557970075.6,286047000.7,N
1557970095.5,286046999.3,N
1557970115.3,286046997.0,N
1557970135.2,286046999.0,N
1557970155.9,286046998.1,N
1557970175.7,286046998.5,N
1557970195.6,286046996.5,N
1557970215.4,286046997.6,N
1557970235.2,286046997.4,N
1557970255.1,286046998.0,N
1557970256.0,286046998.0,N
1557970275.8,286046999.2,N
1557970295.7,286046998.9,N
1557970315.5,286046999.2,N
1557970335.3,286046997.0,N
1557970355.2,286046997.0,N
1557970375.0,286046999.1,N
1557970375.9,286046999.1,N
1557970395.8,286046997.9,N
1557970415.6,286046997.1,N
1557970435.4,286046997.1,N
1557970455.3,286046997.5,N
1557970475.1,286046995.4,Y
1557970495.8,286046997.8,P
1557970515.7,286046998.8,N
1557970535.5,286046998.8,N
1557970555.4,286046999.1,N
1557970575.2,286046998.8,N
1557970595.0,286046998.1,Y
1557970595.9,286046998.1,P
1557970615.8,286047000.4,N
1557970635.6,286046998.6,N
1557970655.5,286046996.9,Y
1557970675.3,286046999.0,P
1557970695.1,286047001.2,P
1557970715.9,286046998.6,N
1557970735.7,286047000.7,N
1557970755.5,286047001.0,N
1557970775.4,286046998.1,N
1557970795.2,286047000.4,N
1557970815.1,286046998.1,N
1557970816.0,286046998.1,N
1557970835.8,286046996.5,N
1557970855.6,286046999.3,N
1557970875.5,286046999.3,N
1557970895.3,286046999.0,N
1557970915.2,286046998.5,N
1557970935.9,286046998.6,N
1557970955.7,286046996.9,N
1557970975.6,286046999.6,N
1557970995.4,286046997.4,N
1557971015.2,286046996.7,N
1557971035.1,286046999.4,N
1557971036.0,286046999.4,N
1557971055.8,286046997.7,N
1557971075.7,286046996.5,N
1557971095.5,286046996.9,N
1557971115.3,286046996.9,N
1557971135.2,286046997.4,N
1557971155.0,286046997.6,N
1557971155.9,286046997.6,N
1557971175.7,286046998.0,N
1557971195.6,286046995.3,Y
1557971215.4,286046999.6,P
1557971235.3,286046996.6,P
1557971255.1,286046997.1,N
1557971256.0,286046997.1,N
1557971275.8,286046997.8,N
1557971295.7,286046996.7,Y
1557971315.5,286046998.2,P
1557971335.4,286046999.4,N
1557971355.2,286046998.8,N
1557971375.0,286046999.3,N
1557971375.9,286046999.3,N
1557971395.8,286046999.1,N
1557971415.6,286046998.7,N
1557971435.4,286046998.0,Y
1557971455.3,286046996.6,P
1557971475.1,286046996.6,P
1557971495.9,286046997.4,N
1557971515.7,286046999.5,N
1557971535.5,286046998.9,N
1557971555.4,286047000.0,N
1557971575.2,286046998.2,N
1557971595.0,286047000.5,N
1557971596.0,286047000.5,N
1557971615.8,286047002.4,N
1557971635.6,286047001.7,N
1557971655.5,286047004.0,N
1557971675.3,286047001.5,N
1557971695.1,286047004.1,N
1557971715.9,286047001.3,N
1557971735.7,286047004.1,N
1557971785.6,286047005.8,E
1557971795.5,286047003.9,N
1557971815.3,286047000.5,P
1557971835.2,286046998.5,N
1557971855.0,286046998.7,N
1557971855.9,286046998.7,N
1557971875.8,286046996.5,N
1557971895.6,286046996.7,N
1557971915.4,286046998.6,N
1557971935.3,286046998.5,N
1557971955.1,286046999.3,N
1557971975.8,286046996.5,N
1557971995.7,286046996.6,N
